Regional Weather Roundup
Issued by NWS Austin/San Antonio, TX

Current Version | Previous Version | Text Only | Print | Product List | Glossary On
Versions: 1 2 3 4 5 6 7 8 9 10 11 12 13 14 15 16 17 18 19 20 21 22 23 24 25 26 27 28 29 30 31 32 33 34 35 36 37 38 39 40 41 42 43 44 45 46 47 48 49 50
000
ASUS44 KEWX 231502
RWREWX
SOUTH TEXAS REGIONAL WEATHER ROUNDUP
NATIONAL WEATHER SERVICE AUSTIN/SAN ANTONIO TX
1000 AM CDT FRI OCT 23 2020

NOTE: "FAIR" INDICATED FEW OR NO CLOUDS BELOW 12,000 FEET WITH NO
SIGNIFICANT WEATHER AND/OR OBSTRUCTIONS TO VISIBILITY.

* - THESE STATIONS ARE NOT NWS OR FAA STATIONS...AND ARE NOT SUBJECT
    TO NWS AND FAA QUALITY CONTROL.

TXZ171-172-183>190-231600-
TEXAS HILL COUNTRY AND EDWARDS PLATEAU

CITY           SKY/WX    TMP DP  RH WIND       PRES   REMARKS
JUNCTION       CLOUDY    76  68  76 VRB6      30.02R
*LLANO         CLOUDY    75  68  78 NE6       30.02R
BURNET         CLOUDY    75  68  78 CALM      30.06R
*HORSESHOE BAY CLOUDY    75  70  83 S5        30.01R
*LAGO VISTA    CLOUDY    74  70  89 SE6       30.02R
*KERRVILLE     CLOUDY    74  69  83 SW5       30.02R
*FREDERICKSBRG CLOUDY    73  67  83 S6        30.01R
*ROCKSPRINGS   CLOUDY    70  68  94 S13       30.06R
*BOERNE        CLOUDY    72  72 100 S5        30.03R
*CASTROVILLE   CLOUDY    79  71  78 S6        29.99R
HONDO          CLOUDY    76  69  79 SW8       29.99R
*UVALDE        CLOUDY    75  70  84 S8        30.00R
DEL RIO        MOSUNNY   79  71  76 SE13      29.94R
*LAUGHLIN AFB  MOSUNNY   76  71  84 SE13      29.96R
*SPOFFORD      NOT AVBL
*EAGLE PASS    NOT AVBL
CARRIZO SPRGS  CLOUDY    77  70  78 S7        29.95R
*FAITH RANCH   CLOUDY    79  70  73 S8        29.97R
$$

TXZ173-191>194-202-209-217>225-228-231600-
CENTRAL AND SOUTH CENTRAL TEXAS

CITY           SKY/WX    TMP DP  RH WIND       PRES   REMARKS
GEORGETOWN     CLOUDY    77  71  82 CALM      30.04R
*TAYLOR        CLOUDY    76  73  89 SE7       30.00R
AUSTIN/BERGSTM CLOUDY    77  73  87 S8        29.99R
AUSTIN/MABRY   CLOUDY    77  71  82 VRB3      30.01R
*PFLUGERVILLE  CLOUDY    75  72  88 CALM      30.00R FOG
SAN MARCOS     CLOUDY    76  74  93 SE6       30.01R
NEW BRAUNFELS  CLOUDY    79  72  79 S7        29.98R
*RANDOLPH AFB  NOT AVBL
*SEGUIN        CLOUDY    76  73  90 SE5       30.03R
SAN ANTONIO    PTSUNNY   77  70  79 S6        29.99R
STINSON FIELD  CLOUDY    76  71  85 S3        29.96R
*KELLY FIELD   CLOUDY    78  70  78 S6        29.97R
*PLEASANTON    CLOUDY    79  73  83 CALM      29.97R
*KENEDY        CLOUDY    78  73  85 CALM      29.98R
*LA GRANGE     CLOUDY    78  76  96 CALM      29.97R
*GIDDINGS      CLOUDY    77  73  86 SE3       30.00R
*GONZALES      CLOUDY    79  74  83 S3        29.97R
$$

TXZ163>164-176>182-195>201-210>213-226-227-235-231600-
SOUTHEAST TEXAS

CITY           SKY/WX    TMP DP  RH WIND       PRES   REMARKS
COLLEGE STN    CLOUDY    76  74  93 CALM      30.00R
*BRYAN         CLOUDY    76  75  95 CALM      30.02R
*CALDWELL      CLOUDY    75 N/A N/A SE6       30.00R
*CROCKETT      NOT AVBL
*BRENHAM       LGT RAIN  76  76  98 CALM      30.00R
HUNTSVILLE     PTSUNNY   80  72  76 E3        30.01R
CONROE         CLOUDY    78  75  90 E3        30.00R
HOUSTON BUSH   PTSUNNY   79  75  87 SE7       29.99R
HOUSTON HOBBY  MOSUNNY   82  73  74 E6        29.97R
*HOUSTON SW AP CLOUDY    77  77 100 SE5       29.99R
PEARLAND       PTSUNNY   81  73  76 E3        29.99R
HOUSTON HOOKS  CLOUDY    78  73  84 E7        29.99R HAZE
ELLINGTON FLD  NOT AVBL
SUGAR LAND     PTSUNNY   80  76  87 E5        29.98R
*HOUSTON EXEC  PTSUNNY   79  77  94 CALM      30.00R
*CLEVELAND MUN LGT RAIN  76  75  98 CALM      30.00R
*WHARTON       CLOUDY    75  74  98 E3        29.98R
*COLUMBUS      NOT AVBL
*EAGLE LAKE    FOG       76  75  97 E5        29.99R VSB 1/4
$$

TXZ214>216-236>238-231600-
THE UPPER TEXAS COAST

CITY           SKY/WX    TMP DP  RH WIND       PRES   REMARKS
*ORANGE        CLOUDY    76  74  93 E5        30.00R
PORT ARTHUR    PTSUNNY   78  73  84 E7        29.97R
GALVESTON      MOSUNNY   81  75  82 SE7       29.97R
ANGLETON       MOSUNNY   81  78  91 E3        29.97R
*BAY CITY      MOSUNNY   79  76  92 E6        29.97R
PALACIOS       PTSUNNY   82  76  81 SE7       29.95R
$$

TXZ229>234-239>247-231600-
TEXAS COASTAL BEND AND RIO GRANDE PLAINS

CITY           SKY/WX    TMP DP  RH WIND       PRES   REMARKS
VICTORIA       CLOUDY    77  76  96 NE3       29.97R FOG
*BEEVILLE      NOT AVBL
ROCKPORT       CLOUDY    83  76  79 SE8       29.93R HX  91
*PORT ARANSAS  CLOUDY    80  76  86 SE6       29.95R
*PORT LAVACA   MOSUNNY   79  76  90 CALM      29.96R
*INGLESIDE     PTSUNNY   82  81  97 SW3       29.93R HX  94
CORPUS CHRISTI PTSUNNY   79  75  89 S3        29.93R
CORPUS NAS     MOSUNNY   83  76  79 S7        29.93R HX  91
*ROBSTOWN      MOSUNNY   77  77  99 CALM      29.94R
ALICE          PTSUNNY   76  76 100 S6        29.94R FOG
KINGSVILLE NAS MOSUNNY   79  76  90 CALM      29.94R
COTULLA        CLOUDY    80  71  74 S5        29.96R
LAREDO         CLOUDY    82  73  74 SE8       29.95R
$$

TXZ248>255-231600-
DEEP SOUTH TEXAS

CITY           SKY/WX    TMP DP  RH WIND       PRES   REMARKS
BROWNSVILLE    MOSUNNY   84  76  76 SE9       29.91R HX  93
PORT ISABEL    PTSUNNY   82  76  81 S7        29.91R
HARLINGEN      MOSUNNY   83  78  85 S8        29.91R HX  93
*HEBBRONVILLE  CLOUDY    77  72  84 S8        29.95R
MCALLEN        MOSUNNY   84  74  71 SE8       29.93R HX  91
*WESLACO       CLOUDY    79  75  86 S5        29.91R
FALFURRIAS     CLOUDY    73  73 100 CALM      29.93R
EDINBURG       CLOUDY    61  59  95 CALM      29.93R
*ZAPATA        MOSUNNY   84  73  71 S5        29.94R HX  90
$$

TXZ213>215-236>238-242>244-246-247-251-254-255-231600-
CMAN STATIONS

STATION/POSITION TIME  TEMP    WIND        PRES    WAVE
                       AIR SEA DIR/SP/G            HT/PER
                 (UTC) (F)     (DEG/KT/KT) (MB)    (FT/S)
NORTH JETTY/GLS  1348           90/  8/  9   N/A
EAGLE POINT      1348      80  100/  9/ 10   N/A
MORGANS POINT    1348      80   80/  7/  8   N/A
PORT O`CONNOR    1348      83  130/  5/  6   N/A
MALAQUITE BEACH  1348          130/  5/  7   N/A
BAFFIN BAY       1348      82  130/  5/  5   N/A
PORT ISABEL      1348      82  150/  5/  7   N/A
$$




USA.gov is the U.S. government's official web portal to all federal, state and local government web resources and services.